Flag for Germany Weather past 2 weeks in Strausberg, Brandenburg, Germany

Now
84 °F

Passing clouds.


Feels Like: 82 °F
Forecast: 65 / 89 °F
Wind: 14 mph from Southeast

Location: Berlin-Schoenefeld

Current Time: Jul 2, 2015 at 3:24:06 PM

Latest Report: Jul 2, 2015 at 2:50 PM


Visibility: N/A

Pressure: 30.24 "Hg

Humidity: 29%

Dew point: 48 °F

Location of StrausbergLocation

Historic Weather in Strausberg — Graph

°F

Strausberg temperature yesterday

Maximum temperature yesterday: 81 °F (at 3:50 PM)
Minimum temperature yesterday: 55 °F (at 4:20 AM)
Average temperature yesterday: 69 °F

Past Weeks' High & Low Weather Summary

 TemperatureHumidityPressure
High84 °F (Jul 2, 1:20 PM)100% (Jun 18, 4:50 AM)30.27 "Hg (Jun 18, 4:50 AM)
Low48 °F (Jun 24, 2:20 AM)28% (Jul 1, 6:20 PM)29.62 "Hg (Jun 23, 12:20 AM)
Average62 °F70%30.02 "Hg
* Reported Jun 17 2:20 PM — Jul 2 2:20 PM, Strausberg, Weather by CustomWeather, © 2015

Note: Actual official high and low records may vary slightly from our data, if they occured in-between our weather recording intervals... More about our weather records

Advertising

Strausberg weather history for previous 24 hours

 ConditionsComfort  
Time TempWeatherWind HumidityBarometerVisibility
2:20 PM
Thu, Jul 2
84 °FPassing clouds.13 mph31%30.24 "HgN/A
1:50 PM84 °FPassing clouds.14 mph29%30.24 "HgN/A
1:20 PM84 °FPassing clouds.14 mph29%30.27 "HgN/A
12:50 PM82 °FPassing clouds.12 mph30%30.27 "HgN/A
12:20 PM81 °FPassing clouds.13 mph32%30.27 "HgN/A
11:50 AM81 °FPassing clouds.13 mph32%30.27 "HgN/A
11:20 AM81 °FPassing clouds.13 mph34%30.27 "HgN/A
10:50 AM79 °FPassing clouds.9 mph37%30.27 "HgN/A
10:20 AM77 °FPassing clouds.12 mph44%30.27 "HgN/A
9:50 AM77 °FPassing clouds.13 mph47%30.27 "HgN/A
9:20 AM73 °FPassing clouds.10 mph50%30.27 "HgN/A
8:50 AM72 °FPassing clouds.9 mph57%30.27 "HgN/A
8:20 AM70 °FPassing clouds.9 mph60%30.27 "HgN/A
7:50 AM66 °FSunny.10 mph64%30.27 "Hg10 mi
7:20 AM66 °FSunny.10 mph64%30.27 "Hg10 mi
6:50 AM64 °FSunny.9 mph64%30.27 "Hg10 mi
6:20 AM63 °FSunny.10 mph68%30.27 "Hg10 mi
5:50 AM61 °FSunny.9 mph72%30.27 "Hg10 mi
5:20 AM61 °FClear.9 mph68%30.27 "Hg10 mi
4:50 AM61 °FClear.7 mph68%30.24 "Hg10 mi
4:20 AM61 °FClear.8 mph68%30.24 "Hg10 mi
3:50 AM59 °FClear.9 mph72%30.24 "Hg10 mi
3:20 AM57 °FClear.6 mph77%30.24 "Hg10 mi
2:50 AM59 °FClear.6 mph77%30.24 "Hg10 mi
2:20 AM61 °FClear.5 mph72%30.24 "Hg10 mi
1:50 AM61 °FClear.5 mph72%30.24 "Hg10 mi
1:20 AM61 °FClear.6 mph72%30.24 "Hg10 mi
12:50 AM64 °FClear.5 mph64%30.24 "Hg10 mi
11:50 PM
Wed, Jul 1
66 °FClear.7 mph60%30.24 "Hg10 mi
11:20 PM66 °FClear.6 mph60%30.21 "Hg10 mi
10:50 PM68 °FClear.5 mph56%30.21 "Hg10 mi
10:20 PM68 °FSunny.6 mph56%30.21 "Hg10 mi
9:50 PM70 °FSunny.7 mph53%30.21 "Hg10 mi
9:20 PM72 °FSunny.8 mph47%30.21 "Hg10 mi
8:50 PM75 °FSunny.8 mph41%30.21 "Hg10 mi
8:20 PM77 °FSunny.9 mph36%30.18 "Hg10 mi
7:50 PM77 °FPassing clouds.9 mph34%30.18 "HgN/A
7:20 PM79 °FSunny.9 mph28%30.18 "Hg10 mi
6:50 PM79 °FPassing clouds.7 mph32%30.18 "HgN/A
6:20 PM79 °FPassing clouds.8 mph28%30.18 "HgN/A
5:50 PM79 °FPassing clouds.12 mph30%30.21 "HgN/A
5:20 PM79 °FPassing clouds.7 mph32%30.21 "HgN/A
4:50 PM79 °FPassing clouds.8 mph34%30.21 "HgN/A
4:20 PM79 °FPassing clouds.8 mph30%30.21 "HgN/A
3:50 PM81 °FPassing clouds.10 mph30%30.21 "HgN/A
3:20 PM79 °FPassing clouds.9 mph32%30.21 "HgN/A
Weather by CustomWeather, © 2015

See weather overviewHow to use our weather pages